Tracking 19795 objects as of 17-Jul-2019
HD Live streaming from Space Station
objects crossing your sky now

ABS 3

Track ABS 3 now!
ABS 3 is classified as:


NORAD ID: 24901
Int'l Code: 1997-042A
Perigee: 36,074.3 km
Apogee: 36,083.3 km
Inclination: 6.3 °
Period: 1,450.7 minutes
Semi major axis: 42449 km
RCS: 10 m2 (large)
Launch date: August 19, 1997
Source: People's Republic of China (PRC)
Launch site: Xichang Space Center, China (XSC)

Most powerful telecommunications satellite in service in the Asia-Pacific region; 30 C-band, 24 Ku-band transponders; 190 high fidelity channels and 50,000 simultaneous telephone links.
aabbcc
Your satellite tracking list
Your tracking list is empty




NASA's NSSDC Master Catalog

Two Line Element Set (TLE):
1 24901U 97042A   19197.88319061 -.00000174  00000-0  00000+0 0  9993
2 24901   6.2697  59.3798 0001056 193.6713 359.5494  0.99263479 80120
Source of the keplerian elements: AFSPC